GW1769 Weather Reports


time (UTC)temp
F
wind
direction
speed
knots
gust
knots
rain 1hr
in
rain 24hr
in
rain mn
in
humidity
%
barometer
mb
20260509192314 48 74 0.0 0.0 0.05 0.38 0.38 99 1006.6
20260509191809 48 68 0.0 0.0 0.00 0.37 0.37 99 1006.7
20260509191305 49 86 0.0 0.9 0.00 0.37 0.37 99 1006.6
20260509190801 48 86 0.9 0.9 0.00 0.37 0.37 99 1006.6
20260509190258 49 65 0.0 0.0 0.00 0.37 0.37 99 1006.9
20260509185755 49 73 0.0 0.9 0.00 0.37 0.37 99 1006.9
20260509185251 48 77 0.0 0.9 0.00 0.37 0.37 99 1006.7
20260509184749 48 58 0.0 0.9 0.00 0.37 0.37 99 1006.7
20260509184247 48 65 0.0 0.0 0.00 0.37 0.37 99 1006.9
20260509183743 48 86 0.9 1.7 0.00 0.37 0.37 99 1006.9
20260509183238 48 61 0.0 0.0 0.00 0.37 0.37 99 1006.5
20260509182734 48 36 0.9 1.7 0.00 0.37 0.37 99 1006.7
20260509182232 48 71 0.0 0.0 0.07 0.37 0.37 99 1006.5
20260509181729 48 57 0.0 0.0 0.07 0.37 0.37 99 1006.7
20260509181226 47 63 0.0 0.0 0.07 0.37 0.37 99 1006.5
20260509180723 47 80 0.0 0.0 0.00 0.36 0.36 99 1006.6
20260509180219 47 89 0.0 0.0 0.00 0.36 0.36 99 1006.9
20260509175716 47 73 0.9 0.9 0.00 0.36 0.36 99 1006.6
20260509175212 47 90 1.7 2.6 0.00 0.36 0.36 99 1006.9
20260509174708 47 72 0.0 0.0 0.00 0.36 0.36 99 1006.9
20260509174203 47 59 0.0 0.0 0.00 0.36 0.36 99 1006.9
20260509173700 47 77 0.9 0.9 0.00 0.36 0.36 99 1006.7
20260509173155 47 78 0.0 0.0 0.00 0.36 0.36 99 1007.1
20260509172652 46 57 0.0 0.9 0.05 0.36 0.36 99 1006.9
20260509172148 46 69 0.0 0.0 0.05 0.36 0.36 99 1007.0
20260509171643 46 80 0.0 0.0 0.00 0.35 0.35 99 1007.2
20260509171140 46 59 0.0 0.9 0.00 0.35 0.35 99 1007.2
20260509170637 46 74 0.0 0.9 0.07 0.35 0.35 99 1007.3
20260509170133 46 78 0.0 0.9 0.07 0.35 0.35 99 1007.0
20260509165631 47 84 0.0 0.0 0.00 0.34 0.34 99 1007.1
20260509165127 47 77 0.0 0.0 0.00 0.34 0.34 99 1007.2
20260509164624 46 80 0.0 0.0 0.05 0.34 0.34 99 1007.6
20260509164119 47 57 0.9 1.7 0.05 0.34 0.34 99 1007.3
20260509163617 47 77 0.0 0.0 0.07 0.33 0.33 99 1007.5
20260509163113 46 90 0.9 1.7 0.07 0.33 0.33 99 1007.7
20260509162610 46 60 0.9 1.7 0.07 0.33 0.33 99 1007.4
20260509162106 46 176 0.9 0.9 0.00 0.32 0.32 99 1007.5
20260509161603 47 67 0.0 0.0 0.05 0.32 0.32 99 1007.7
20260509161102 46 58 1.7 1.7 0.05 0.32 0.32 99 1007.6
20260509160559 46 37 0.9 1.7 0.00 0.31 0.31 99 1007.7
20260509160054 46 69 0.0 0.9 0.07 0.31 0.31 99 1007.9
20260509155551 46 89 0.9 0.9 0.07 0.31 0.31 99 1007.9
20260509155047 46 60 0.9 1.7 0.07 0.30 0.30 99 1008.1
20260509154543 45 142 1.7 1.7 0.07 0.30 0.30 99 1008.1
20260509154041 45 84 0.0 0.9 0.05 0.29 0.29 99 1008.1
20260509153538 45 105 0.0 0.0 0.05 0.29 0.29 99 1008.4
20260509153035 45 58 0.0 0.9 0.07 0.28 0.28 99 1008.2
20260509152530 45 72 0.0 0.0 0.12 0.28 0.28 99 1008.3
20260509152028 45 114 0.9 0.9 0.12 0.27 0.27 99 1008.4
20260509151524 45 67 0.0 0.0 0.12 0.26 0.26 99 1008.5
20260509151022 45 77 1.7 1.7 0.05 0.25 0.25 99 1008.6
20260509150519 45 49 0.0 0.0 0.12 0.25 0.25 99 1008.7
20260509150018 45 67 0.0 0.9 0.12 0.24 0.24 99 1008.7
20260509145513 45 66 0.0 0.0 0.05 0.23 0.23 99 1008.7
20260509145008 44 70 0.0 0.0 0.07 0.22 0.22 99 1008.5
20260509144505 44 75 0.0 0.0 0.12 0.22 0.22 99 1008.6
20260509144002 44 69 0.0 0.0 0.05 0.21 0.21 99 1008.5
20260509143459 44 69 0.9 0.9 0.07 0.20 0.20 99 1008.6
20260509142956 44 69 0.0 0.0 0.07 0.20 0.20 99 1008.6
20260509142452 44 79 0.0 0.0 0.07 0.19 0.19 99 1008.6
20260509141948 44 84 0.0 0.0 0.07 0.19 0.19 99 1008.7
20260509141444 44 111 0.9 1.7 0.00 0.18 0.18 99 1008.5
20260509140941 43 71 0.9 1.7 0.05 0.18 0.18 99 1008.6
20260509140437 43 78 0.0 0.0 0.12 0.18 0.18 99 1008.7
20260509135936 43 75 0.0 0.9 0.07 0.17 0.17 99 1008.5
20260509135433 43 102 0.0 0.9 0.07 0.17 0.17 99 1008.6
20260509134930 43 75 0.0 0.0 0.05 0.16 0.16 99 1008.6
20260509134428 43 95 0.0 0.0 0.05 0.16 0.16 99 1008.6
20260509133925 43 78 0.0 0.0 0.07 0.15 0.15 99 1008.6
20260509133421 43 75 0.0 0.0 0.07 0.15 0.15 99 1008.7
20260509132920 43 87 0.0 0.0 0.05 0.14 0.14 99 1008.4
20260509132418 43 73 0.0 0.0 0.12 0.14 0.14 99 1008.6
20260509131914 43 73 0.0 0.0 0.12 0.13 0.13 99 1008.6
20260509131412 43 74 0.0 0.0 0.12 0.12 0.12 99 1008.6
20260509130908 43 74 0.0 0.0 0.07 0.11 0.11 99 1008.7
20260509130403 43 73 0.0 0.0 0.05 0.10 0.10 99 1008.5
20260509125901 42 95 0.0 0.0 0.05 0.10 0.10 99 1008.7
20260509125357 43 117 0.9 0.9 0.07 0.09 0.09 99 1008.7
20260509124853 42 69 0.0 0.0 0.07 0.09 0.09 99 1008.7
20260509124350 42 73 0.0 0.0 0.05 0.08 0.08 99 1008.7
20260509123848 42 73 0.0 0.0 0.05 0.08 0.08 99 1008.9
20260509123345 42 79 0.0 0.0 0.07 0.07 0.07 99 1008.7
20260509122841 42 81 0.0 0.0 0.07 0.07 0.07 99 1008.9
20260509122338 42 82 0.0 0.0 0.07 0.06 0.06 99 1008.8
20260509121835 42 74 0.0 0.0 0.07 0.06 0.06 99 1008.8
20260509121332 42 75 0.0 0.0 0.05 0.05 0.05 98 1008.7
20260509120830 42 73 0.0 0.9 0.05 0.05 0.05 98 1008.7
20260509120327 42 71 0.0 0.0 0.00 0.04 0.04 98 1008.8
20260509115826 42 68 0.0 0.0 0.07 0.04 0.04 98 1009.0
20260509115322 42 79 0.0 0.0 0.07 0.04 0.04 98 1008.6
20260509114820 42 69 0.0 0.0 0.00 0.03 0.03 97 1009.1
20260509114319 42 70 0.0 0.0 0.05 0.03 0.03 97 1008.8
20260509113818 42 62 0.0 0.0 0.05 0.03 0.03 97 1008.8
20260509113314 42 69 0.0 0.0 0.07 0.02 0.02 96 1008.9
20260509112811 42 62 0.0 0.0 0.07 0.02 0.02 96 1008.9
20260509112308 42 65 0.0 0.0 0.00 0.01 0.01 95 1008.9
20260509111805 42 68 0.0 0.0 0.00 0.01 0.01 95 1008.8
20260509111302 42 69 0.0 0.0 0.05 0.01 0.01 94 1008.8
20260509110759 42 65 0.0 0.0 0.05 0.01 0.01 93 1008.7
20260509110255 42 69 0.0 0.0 0.00 0.00 0.00 92 1008.7
20260509105754 42 76 0.0 0.0 0.00 0.00 0.00 91 1009.0
20260509105251 42 65 0.0 0.0 0.00 0.00 0.00 91 1008.9
20260509104748 42 62 0.9 0.9 0.00 0.00 0.00 91 1008.6
20260509104245 42 74 0.9 0.9 0.00 0.00 0.00 91 1008.5
20260509103743 42 79 0.0 0.0 0.00 0.00 0.00 91 1008.8
20260509103240 42 73 0.0 0.0 0.00 0.00 0.00 91 1008.7
20260509102738 42 61 0.9 0.9 0.00 0.00 0.00 91 1008.6
20260509102235 42 65 0.0 0.0 0.00 0.00 0.00 91 1008.6
20260509101731 42 69 0.0 0.0 0.00 0.00 0.00 91 1008.8
20260509101227 42 81 0.0 0.0 0.00 0.00 0.00 91 1008.7
20260509100725 42 68 0.0 0.0 0.00 0.00 0.00 90 1009.0
20260509100222 42 118 0.0 0.9 0.00 0.00 0.00 90 1008.9
20260509095719 42 79 0.0 0.0 0.00 0.00 0.00 90 1008.9
20260509095216 42 67 0.0 0.0 0.00 0.00 0.00 89 1009.2
20260509094713 42 85 0.0 0.9 0.00 0.00 0.00 89 1008.9
20260509094210 42 70 0.0 0.0 0.00 0.00 0.00 89 1008.8
20260509093708 42 89 0.0 0.0 0.00 0.00 0.00 89 1008.9
20260509093205 42 58 0.0 0.9 0.00 0.00 0.00 88 1009.0
20260509092703 42 73 0.0 0.9 0.00 0.00 0.00 87 1009.0
20260509092201 42 72 0.0 0.0 0.00 0.00 0.00 87 1009.2
20260509091659 43 60 0.0 0.0 0.00 0.00 0.00 86 1009.2
20260509091154 43 59 0.0 0.0 0.00 0.00 0.00 83 1009.3
20260509090652 44 39 0.0 0.9 0.00 0.00 0.00 80 1009.4
20260509090149 44 77 0.0 0.0 0.00 0.00 0.00 77 1009.4
20260509085647 43 55 0.0 0.0 0.00 0.00 0.00 77 1009.4
20260509085143 43 27 0.9 1.7 0.00 0.00 0.00 77 1009.3
20260509084640 42 74 0.0 0.0 0.00 0.00 0.00 80 1009.5
20260509084137 42 46 0.0 0.0 0.00 0.00 0.00 82 1009.3
20260509083635 41 44 0.9 0.9 0.00 0.00 0.00 88 1009.4
20260509083131 40 41 0.9 0.9 0.00 0.00 0.00 90 1009.1
20260509082628 40 41 0.0 0.0 0.00 0.00 0.00 92 1009.2
20260509082125 40 41 0.0 0.9 0.00 0.00 0.00 92 1009.2
20260509081622 40 41 0.0 0.0 0.00 0.00 0.00 92 1009.0
20260509081119 39 41 0.0 0.9 0.00 0.00 0.00 92 1009.2
20260509080617 39 41 0.0 0.9 0.00 0.00 0.00 91 1009.0
20260509080115 39 38 0.0 0.0 0.00 0.00 0.00 91 1008.9
20260509075613 39 37 0.0 0.9 0.00 0.00 0.00 91 1008.9
20260509075110 39 37 0.9 0.9 0.00 0.00 0.00 91 1009.0
20260509074607 39 37 0.9 0.9 0.00 0.00 0.00 90 1009.1
20260509074103 39 37 0.0 0.9 0.00 0.00 0.00 90 1008.9
20260509073600 38 29 0.9 0.9 0.00 0.00 0.00 89 1008.9
20260509073056 38 28 0.9 0.9 0.00 0.00 0.00 89 1009.1
20260509072553 37 22 0.9 0.9 0.00 0.00 0.00 89 1009.0
20260509072050 37 21 0.9 0.9 0.00 0.00 0.00 90 1009.1
20260509071547 37 18 0.9 0.9 0.00 0.00 0.00 91 1008.9
20260509071044 36 19 0.9 0.9 0.00 0.00 0.00 91 1009.1
20260509070541 36 20 0.9 0.9 0.00 0.00 0.00 92 1009.1
20260509070038 36 27 0.9 0.9 0.00 0.00 0.00 92 1009.0
20260509065533 35 27 0.9 0.9 0.00 0.00 0.00 91 1008.9
20260509065029 36 28 0.0 0.0 0.00 0.00 0.00 91 1008.9
20260509064527 36 19 0.9 0.9 0.00 0.00 0.00 91 1009.1
20260509064025 36 21 0.9 0.9 0.00 0.00 0.00 91 1008.9
20260509063520 36 36 0.9 0.9 0.00 0.00 0.00 92 1008.9
20260509063018 36 20 0.9 1.7 0.00 0.00 0.00 91 1009.0
20260509062515 36 27 0.9 0.9 0.00 0.00 0.00 92 1009.0
20260509062012 37 22 0.9 0.9 0.00 0.00 0.00 92 1009.2
20260509061509 36 24 0.9 0.9 0.00 0.00 0.00 91 1009.2
20260509061007 36 39 0.9 0.9 0.00 0.00 0.00 92 1009.2
20260509060504 36 15 0.9 0.9 0.00 0.00 0.00 92 1009.3
20260509055959 37 1 0.9 1.7 0.00 0.00 0.00 91 1009.4
20260509055454 37 25 0.9 0.9 0.00 0.00 0.00 91 1009.3
20260509054951 37 27 0.9 0.9 0.00 0.00 0.00 91 1009.4
20260509054448 38 22 0.9 0.9 0.00 0.00 0.00 91 1009.4
20260509053946 38 34 0.9 0.9 0.00 0.00 0.00 91 1009.6
20260509053444 38 31 0.9 0.9 0.00 0.00 0.00 90 1009.8
20260509052941 39 39 0.9 0.9 0.00 0.00 0.00 90 1009.7
20260509052438 39 39 0.9 0.9 0.00 0.00 0.00 89 1009.7
20260509051936 39 40 0.0 0.0 0.00 0.00 0.00 89 1009.6
20260509051434 40 37 0.9 0.9 0.00 0.00 0.00 89 1009.6
20260509050931 40 40 0.0 0.9 0.00 0.00 0.00 87 1009.7
20260509050427 40 40 0.0 0.9 0.00 0.00 0.00 86 1009.5
20260509045924 40 40 0.0 0.9 0.00 0.00 0.00 86 1009.7
20260509045421 40 39 0.9 0.9 0.00 0.00 0.00 87 1009.6
20260509044918 40 41 0.0 0.0 0.00 0.00 0.00 87 1009.7
20260509044416 40 40 0.0 0.9 0.00 0.00 0.00 86 1009.6
20260509043913 40 40 0.0 0.0 0.00 0.00 0.00 86 1009.8
20260509043408 40 40 0.0 0.9 0.00 0.00 0.00 85 1009.6
20260509042904 40 40 0.9 0.9 0.00 0.00 0.00 85 1009.7
20260509042401 40 36 0.9 0.9 0.00 0.00 0.00 86 1009.9
20260509041857 40 39 0.9 0.9 0.00 0.00 0.00 86 1009.4
20260509041354 39 40 0.0 0.9 0.00 0.00 0.00 86 1009.8
20260509040853 39 27 0.0 0.0 0.00 0.00 0.00 86 1009.6
20260509040350 39 27 0.9 0.9 0.00 0.00 0.00 86 1009.7
20260509035847 39 26 0.9 0.9 0.00 0.00 0.00 87 1009.6
20260509035344 38 27 0.0 0.9 0.00 0.00 0.00 88 1009.5
20260509034840 38 27 0.0 0.9 0.00 0.00 0.00 88 1009.6
20260509034338 38 26 0.9 0.9 0.00 0.00 0.00 88 1009.5
20260509033835 38 26 0.9 0.9 0.00 0.00 0.00 87 1009.5
20260509033332 37 24 0.9 0.9 0.00 0.00 0.00 87 1009.4
20260509032829 38 40 0.0 0.0 0.00 0.00 0.00 88 1009.5
20260509032326 37 39 0.9 0.9 0.00 0.00 0.00 88 1009.4
20260509031824 38 40 0.0 0.9 0.00 0.00 0.00 87 1009.6
20260509031321 38 40 0.0 0.0 0.00 0.00 0.00 88 1009.6
20260509030819 38 40 0.0 0.0 0.00 0.00 0.00 89 1009.6
20260509030316 38 40 0.0 0.0 0.00 0.00 0.00 88 1009.5
20260509025813 37 40 0.0 0.0 0.00 0.00 0.00 88 1009.5
20260509025308 37 40 0.0 0.0 0.00 0.00 0.00 88 1009.4
20260509024804 37 40 0.0 0.0 0.00 0.00 0.00 88 1009.8
20260509024300 37 40 0.0 0.0 0.00 0.00 0.00 88 1009.7
20260509023757 37 40 0.0 0.0 0.00 0.00 0.00 88 1009.6
20260509023255 37 34 0.0 0.0 0.00 0.00 0.00 87 1009.6
20260509022750 37 33 0.9 0.9 0.00 0.00 0.00 87 1009.8
20260509022249 37 34 0.9 0.9 0.00 0.00 0.00 86 1009.7
20260509021745 37 25 0.9 0.9 0.00 0.00 0.00 86 1009.8
20260509021242 37 33 0.9 0.9 0.00 0.00 0.00 87 1009.5
20260509020740 37 34 0.0 0.9 0.00 0.00 0.00 87 1009.6
20260509020237 38 36 0.9 0.9 0.00 0.00 0.00 86 1009.5
20260509015735 38 40 0.9 0.9 0.00 0.00 0.00 85 1009.5
20260509015233 38 40 0.9 0.9 0.00 0.00 0.00 86 1009.5
20260509014729 38 40 0.9 0.9 0.00 0.00 0.00 85 1009.3
20260509014227 38 38 0.9 0.9 0.00 0.00 0.00 85 1009.4
20260509013723 38 37 0.9 0.9 0.00 0.00 0.00 84 1009.5
20260509013219 38 40 0.9 0.9 0.00 0.00 0.00 85 1009.2
20260509012716 38 41 0.0 0.0 0.00 0.00 0.00 84 1009.3
20260509012212 39 41 0.0 0.0 0.00 0.00 0.00 83 1009.0
20260509011710 39 41 0.0 0.0 0.00 0.00 0.00 82 1008.8
20260509011208 39 41 0.0 0.0 0.00 0.00 0.00 80 1009.0
20260509010705 39 41 0.0 0.0 0.00 0.00 0.00 79 1008.8
20260509010201 39 41 0.0 0.9 0.00 0.00 0.00 78 1008.8
20260509005659 39 41 0.0 0.0 0.00 0.00 0.00 79 1009.0
20260509005155 40 40 0.0 0.9 0.00 0.00 0.00 77 1008.8
20260509004651 40 46 0.0 0.0 0.00 0.00 0.00 76 1008.4
20260509004148 41 46 0.0 0.0 0.00 0.00 0.00 74 1008.5
20260509003647 42 46 0.0 0.0 0.00 0.00 0.00 73 1008.4
20260509003143 42 46 0.0 0.0 0.00 0.00 0.00 70 1008.6
20260509002641 44 46 0.0 0.0 0.00 0.00 0.00 68 1008.2
20260509002138 45 40 0.0 0.0 0.00 0.00 0.00 64 1008.2
20260509001636 46 34 0.9 0.9 0.00 0.00 0.00 61 1008.2
20260509001131 46 43 0.9 0.9 0.00 0.00 0.00 62 1008.1
20260509000630 46 34 0.9 0.9 0.00 0.00 0.00 58 1008.0
20260509000126 47 27 0.9 1.7 0.00 0.00 0.00 58 1008.3
20260508235623 47 43 0.9 0.9 0.00 0.00 0.00 60 1008.2
20260508235120 48 13 0.0 0.9 0.00 0.00 0.00 58 1008.0
20260508234617 48 8 1.7 1.7 0.00 0.00 0.00 57 1007.9
20260508234113 48 8 0.9 0.9 0.00 0.00 0.00 58 1007.7
20260508233613 48 3 1.7 1.7 0.00 0.00 0.00 59 1007.9
20260508233110 49 44 0.0 0.0 0.00 0.00 0.00 61 1007.8
20260508232607 49 324 0.9 0.9 0.00 0.00 0.00 58 1007.8
20260508232104 50 336 0.9 0.9 0.00 0.00 0.00 57 1007.8
20260508231602 50 1 1.7 1.7 0.00 0.00 0.00 58 1007.9
20260508231058 50 327 1.7 1.7 0.00 0.00 0.00 57 1007.9
20260508230555 50 341 0.9 1.7 0.00 0.00 0.00 57 1007.8
20260508230051 50 359 0.9 1.7 0.00 0.00 0.00 56 1007.8
20260508225549 50 302 0.9 1.7 0.00 0.00 0.00 57 1007.7
20260508225045 50 329 2.6 2.6 0.00 0.00 0.00 59 1007.7
20260508224543 50 38 2.6 2.6 0.00 0.00 0.00 58 1007.8
20260508224040 50 241 1.7 2.6 0.00 0.00 0.00 59 1007.8
20260508223538 50 113 1.7 2.6 0.00 0.00 0.00 57 1007.8
20260508223035 50 16 0.9 0.9 0.00 0.00 0.00 58 1007.5
20260508222533 50 355 0.9 0.9 0.00 0.00 0.00 58 1007.7
20260508222029 50 51 1.7 1.7 0.00 0.00 0.00 57 1007.7
20260508221526 50 321 2.6 2.6 0.00 0.00 0.00 56 1007.7
20260508221021 50 286 2.6 2.6 0.00 0.00 0.00 57 1007.7
20260508220518 50 351 1.7 2.6 0.00 0.00 0.00 57 1007.6
20260508220015 51 42 0.9 1.7 0.00 0.00 0.00 55 1007.7
20260508215512 51 18 2.6 2.6 0.00 0.00 0.00 55 1007.8
20260508215008 51 45 0.9 0.9 0.00 0.00 0.00 54 1007.6
20260508214506 50 341 1.7 1.7 0.00 0.00 0.00 54 1007.8
20260508214002 50 230 3.5 6.1 0.00 0.00 0.00 54 1007.7
20260508213500 51 50 1.7 1.7 0.00 0.00 0.00 55 1007.7
20260508212954 51 359 0.9 1.7 0.00 0.00 0.00 56 1007.7
20260508212452 51 19 1.7 1.7 0.00 0.00 0.00 57 1007.6
20260508211948 50 336 3.5 4.3 0.00 0.00 0.00 56 1007.6
20260508211443 51 299 4.3 5.2 0.00 0.00 0.00 54 1007.7
20260508210940 51 311 2.6 2.6 0.00 0.00 0.00 56 1007.8
20260508210437 51 48 0.9 1.7 0.00 0.00 0.00 54 1007.5
20260508205933 51 219 1.7 2.6 0.00 0.00 0.00 56 1007.6
20260508205431 51 230 4.3 7.0 0.00 0.00 0.00 56 1007.4
20260508204927 51 235 2.6 2.6 0.00 0.00 0.00 56 1007.5
20260508204424 51 344 4.3 5.2 0.00 0.00 0.00 57 1007.5
20260508203919 50 309 2.6 4.3 0.00 0.00 0.00 58 1007.7
20260508203416 50 318 0.9 1.7 0.00 0.00 0.00 59 1007.4
20260508202912 51 305 0.9 1.7 0.00 0.00 0.00 57 1007.6
20260508202410 54 212 2.6 2.6 0.00 0.00 0.00 54 1007.4
20260508201907 53 308 2.6 4.3 0.00 0.00 0.00 55 1007.4
20260508201403 52 304 1.7 1.7 0.00 0.00 0.00 57 1007.4
20260508200900 53 255 2.6 4.3 0.00 0.00 0.00 55 1007.5
20260508200357 51 348 1.7 1.7 0.00 0.00 0.00 59 1007.5
20260508195852 52 219 1.7 2.6 0.00 0.00 0.00 56 1007.6
20260508195349 53 321 2.6 2.6 0.00 0.00 0.00 55 1007.5
20260508194845 53 326 1.7 2.6 0.00 0.00 0.00 60 1007.6
20260508194342 52 7 1.7 1.7 0.00 0.00 0.00 60 1007.6
20260508193839 53 305 1.7 2.6 0.00 0.00 0.00 58 1007.5
20260508193336 52 313 2.6 4.3 0.00 0.00 0.00 63 1007.7
20260508192832 51 274 0.9 1.7 0.00 0.00 0.00 64 1008.0